Location: Barcelona
(41.3829°N, 2.1774°E)
Time: 13:33:16
(UTC+00:00)

ISS - Pass Details

Date: 11 July 2024
Orbit: 410 x 424 km, 51.6° (Epoch: 14 July)

Event Time Altitude Azimuth Distance (km) Brightness Sun altitude
Rises 23:24:40 0° 301° (WNW) 2,342 0.6 -26.2°
Reaches altitude 10° 23:27:32 10° 328° (NNW) 1,481 -0.2 -26.3°
Maximum altitude 23:29:23 14° 2° (N) 1,261 -0.5 -26.4°
Drops below altitude 10° 23:31:15 10° 36° (NE) 1,484 -0.4 -26.4°
Sets 23:34:07 0° 63° (ENE) 2,349 0.3 -26.5°
